TimeEDT,TemperatureF,Dew PointF,Humidity,Sea Level PressureIn,VisibilityMPH,Wind Direction,Wind SpeedMPH,Gust SpeedMPH,PrecipitationIn,Events,Conditions,WindDirDegrees,DateUTC
12:51 AM,57.0,51.1,81,30.15,10.0,South,4.6,-,N/A,,Clear,180,2013-08-15 04:51:00
1:51 AM,55.0,51.1,86,30.15,10.0,South,4.6,-,N/A,,Clear,180,2013-08-15 05:51:00
2:51 AM,54.0,50.0,86,30.14,10.0,South,5.8,-,N/A,,Clear,190,2013-08-15 06:51:00
3:51 AM,53.1,48.9,86,30.14,10.0,South,5.8,-,N/A,,Clear,190,2013-08-15 07:51:00
4:51 AM,53.1,48.0,83,30.14,10.0,South,5.8,-,N/A,,Clear,190,2013-08-15 08:51:00
5:51 AM,53.1,48.0,83,30.15,10.0,South,5.8,-,N/A,,Clear,190,2013-08-15 09:51:00
6:51 AM,53.1,46.9,80,30.17,10.0,South,6.9,-,N/A,,Partly Cloudy,190,2013-08-15 10:51:00
7:51 AM,57.0,48.0,72,30.17,10.0,South,6.9,-,N/A,,Overcast,190,2013-08-15 11:51:00
8:51 AM,61.0,52.0,72,30.17,10.0,South,6.9,-,N/A,,Scattered Clouds,190,2013-08-15 12:51:00
9:51 AM,63.0,52.0,67,30.17,10.0,SSW,8.1,-,N/A,,Overcast,210,2013-08-15 13:51:00
10:51 AM,64.9,52.0,63,30.18,10.0,SSW,11.5,-,N/A,,Overcast,210,2013-08-15 14:51:00
11:51 AM,69.1,55.0,61,30.17,10.0,Variable,5.8,-,N/A,,Mostly Cloudy,0,2013-08-15 15:51:00
12:51 PM,69.1,50.0,51,30.17,10.0,West,6.9,-,N/A,,Mostly Cloudy,280,2013-08-15 16:51:00
1:51 PM,70.0,48.9,47,30.16,10.0,West,10.4,-,N/A,,Clear,270,2013-08-15 17:51:00
2:51 PM,70.0,50.0,49,30.15,10.0,West,8.1,19.6,N/A,,Clear,270,2013-08-15 18:51:00
3:51 PM,70.0,51.1,51,30.14,10.0,WNW,10.4,-,N/A,,Partly Cloudy,290,2013-08-15 19:51:00
4:51 PM,71.1,52.0,51,30.13,10.0,West,11.5,-,N/A,,Scattered Clouds,270,2013-08-15 20:51:00
5:51 PM,68.0,52.0,56,30.13,10.0,WNW,8.1,-,N/A,,Partly Cloudy,300,2013-08-15 21:51:00
6:51 PM,68.0,52.0,56,30.13,10.0,West,5.8,-,N/A,,Overcast,260,2013-08-15 22:51:00
7:51 PM,66.9,50.0,54,30.14,10.0,West,5.8,-,N/A,,Scattered Clouds,260,2013-08-15 23:51:00
8:51 PM,63.0,52.0,67,30.14,10.0,SSW,4.6,-,N/A,,Clear,200,2013-08-16 00:51:00
9:51 PM,61.0,53.1,75,30.16,10.0,South,3.5,-,N/A,,Clear,190,2013-08-16 01:51:00
10:51 PM,59.0,52.0,78,30.15,10.0,South,4.6,-,N/A,,Partly Cloudy,190,2013-08-16 02:51:00
11:51 PM,57.9,51.1,78,30.15,10.0,South,4.6,-,N/A,,Mostly Cloudy,190,2013-08-16 03:51:00